Jackpot Winner Texas Poker

Kini Telah hadir Jackpot SUPER ROYAL FLUSH

Kini Telah hadir Jackpot 2000 (khusus table VIP keatas).

Ikutilah global jackpot yang tersedia di system kami, dengan system jackpot terbaru dan pertama di indonesia, anda dapat membeli jackpot dengan harga 100 rupiah saja dan menangkan hadiahnya hingga puluhan juta rupiah.

Jackpot bukanlah suatu keharusan untuk dibeli, namun kami memberikan suatu fitur tambahan untuk member tercinta dari www.nagapoker.com.

Terdapat tiga pilihan harga jackpot yang bisa anda beli yaitu :100,500,1000 dan 2000(khusus table VIP Keatas) rupiah.

Hadiah dari Multi jackpot system www.nagapoker.com

  1. full house x 10 harga jackpot yang anda beli.
      (contoH:anda membeli 1000 maka:1000 X10 = 10.000)
  2. four of kind x 250 harga jackpot yang anda beli
      (contoH:anda membeli 1000 maka:1000 X250 = 250.000)
  3. Straight flush x 1200
      (contoH:anda membeli 1000 maka:1000 X1200 = 1.200.000)
  4. Royal flush x 10000 harga jackpot yang anda beli
      (contoH:anda membeli 1000 maka:1000 X10000 = 10.000.000)
  5. SUPER ROYAL FLUSH x 30000 harga jackpot yang anda beli
      (contoH:anda membeli 1000 maka:1000 X30000 = 30.000.000)

Kondisi kartu

  1. full house adalah kondisi kartu dimana kartu anda dan kartu tengah dengan total 7 kartu bisa mendapatkan nilai 5 kartu dengan kombinasi 1 tris(three of kind) dan 1 pair, contoh 3 kartu 10 dan 2 kartu 5
  2. Four of kind adalah kondisi kartu dimana kartu anda dan kartu tengah dengan total 7 kartu bisa mendapatkan nilai 5 kartu dengan kombinasi 4 kartu yang sama jumlah dan 1 kartu apapun juga contoh anda mendapatkan 4 buah kartu angka 3 dan 1 kartu apapun.
  3. Straight flush adalah kondisi kartu dimana kartu anda dan kartu tengah dengan total 7 kartu bisa mendapatkan nilai 5 kartu dengan kombinasi seri / staright dengan kembang yang sama contoh : urutan kartu dari angka 5, 6, 7, 8 , 9 10 dengan kembang yg sama misalnya as hati
  4. Royal flush adalah kondisi kartu dimana kartu anda dan kartu tengah dengan total 7 kartu bisa mendapatkan nilai 5 kartu dengan kombinasi seri / staright dengan kembang yang sama tetapi kartu tersebut haruslah dimulai dari 10. contoh 10, Queen, Jack, King dan aces dengan kembang yang sama
  5. Super Royal flush adalah kondisi kartu dimana Kedua kartu anda digabung dengan 3 kartu pertama meja haruslah royal flush. contoh kartu anda10,Queen dan 3 kartu pertama meja adalah Jack, King dan aces dengan kembang yang sama

Demikian adalah penjelasan dari Multi Jackpot www.nagapoker.com terima kasih dan selamat bermain salam hoki dari kami


Jackpot Winner

TOP SUPER ROYAL FLUSH
No. Tanggal Nama Price Win
1 24/02 05:01 RYCHAK Super Royal flush 6,000,000
2 23/02 23:52 ANDY55555 Super Royal flush 15,000,000
3 23/02 21:49 LIASWEET Super Royal flush 15,000,000
4 23/02 18:34 ADE_85 Super Royal flush 15,000,000
5 23/02 12:45 VIVO098 Super Royal flush 6,000,000
TOP ROYAL FLUSH
No. Tanggal Nama Price Win
1 24/02 07:16 SUTISNA87 Royal flush 10,000,000
2 24/02 05:55 RONTOK123 Royal flush 1,000,000
3 24/02 05:48 ES4 Royal flush 2,000,000
4 24/02 04:50 ANJAY_25 Royal flush 5,000,000
5 24/02 04:49 EI9999 Royal flush 2,000,000
TOP STRAIGHT FLUSH
No. Tanggal Nama Price Win
1 24/02 07:13 TAGOLEKLAH Straight Flush 120,000
2 24/02 07:07 KACAU666 Straight Flush 120,000
3 24/02 07:05 LOWIS86 Straight Flush 600,000
4 24/02 07:05 J3N9_LOT Straight Flush 600,000
5 24/02 07:02 F9JVQPOFLL Straight Flush 120,000
LATEST JACKPOT
No. Tanggal Nama Price Win
1 24/02 07:24 GASSP00LL Full House 500
2 24/02 07:24 DWIADITIYO Four Of A Kind 25,000
3 24/02 07:23 DWBTIE7739 Full House 2,000
4 24/02 07:23 ANNUR11 Full House 2,000
5 24/02 07:23 JOYCADA44 Full House 5,000
6 24/02 07:23 GEDENK Full House 5,000
7 24/02 07:23 MR_J88 Four Of A Kind 125,000
8 24/02 07:23 KPHOT86 Full House 10,000
9 24/02 07:23 TSINDI Full House 5,000
10 24/02 07:23 KASIRIN88 Full House 5,000
11 24/02 07:23 TASENGGOL Full House 5,000
12 24/02 07:23 ELCHAPOO Four Of A Kind 250,000
13 24/02 07:23 EARLY46 Full House 10,000
14 24/02 07:23 MONKU88 Full House 2,000
15 24/02 07:23 NTT88888 Full House 2,000
16 24/02 07:23 PROUNLY Full House 5,000
17 24/02 07:23 BUZET7 Full House 2,000
18 24/02 07:23 BAKSD0NG Four Of A Kind 12,500
19 24/02 07:23 UNTUNGNUAK Full House 2,000
20 24/02 07:23 PB90 Full House 2,000
21 24/02 07:23 APEL111 Full House 1,000
22 24/02 07:23 BGROBI Full House 1,000
23 24/02 07:23 SMOGAAJ Full House 2,000
24 24/02 07:23 ABDOELDN Full House 1,000
25 24/02 07:23 B8F75C76 Four Of A Kind 250,000
26 24/02 07:23 BJM5000 Full House 1,000
27 24/02 07:23 AJID_888 Full House 2,000
28 24/02 07:22 DWBTASGA40 Full House 5,000
29 24/02 07:22 MONA001 Full House 2,000
30 24/02 07:22 AYU1601 Full House 5,000
31 24/02 07:22 SITUNG188 Full House 10,000
32 24/02 07:22 WCEFD71IF0 Full House 2,000
33 24/02 07:22 YUK_SIKAT Full House 10,000
34 24/02 07:22 EE6D3E4D Full House 5,000
35 24/02 07:22 TEMPUR133 Full House 5,000
36 24/02 07:22 DINAST11 Four Of A Kind 125,000
37 24/02 07:22 UNYIL114 Full House 1,000
38 24/02 07:22 UGMJ2SOGDM Full House 1,000
39 24/02 07:22 KUOTA3 Full House 2,000
40 24/02 07:22 ZIBOAO6KXD Full House 10,000
41 24/02 07:22 MOOO980 Full House 500
42 24/02 07:22 CLARAWUL Full House 20,000
43 24/02 07:22 ARET100 Four Of A Kind 125,000
44 24/02 07:22 RYAL21 Full House 10,000
45 24/02 07:22 EHON Four Of A Kind 50,000
46 24/02 07:22 AJOPIAM4N Full House 10,000
47 24/02 07:22 SABAYY Full House 5,000
48 24/02 07:22 W2RLQJDAOH Full House 5,000
49 24/02 07:22 JEPARA88 Full House 20,000
50 24/02 07:21 PROP999 Full House 2,000
Dewa.FM